Tracking 25193 objects as of 17-Jan-2022
HD Live streaming from Space Station
objects crossing your sky now

SBS 2

Track SBS 2 now!
SBS 2 is classified as:


NORAD ID: 12855
Int'l Code: 1981-096A
Perigee: 35,811.0 km
Apogee: 35,844.0 km
Inclination: 12.8 °
Period: 1,437.8 minutes
Semi major axis: 42198 km
RCS: 7.6855 m2 (large)
Launch date: September 24, 1981
Source: United States (US)
Launch site: AIR FORCE EASTERN TEST RANGE (AFETR)
aabbcc
Your satellite tracking list
Your tracking list is empty




NASA's NSSDC Master Catalog

Two Line Element Set (TLE):
1 12855U 81096A   22016.75528473 -.00000322  00000-0  00000+0 0  9994
2 12855  12.7951 333.5790 0003914 175.0112  14.3267  1.00151479102411
Source of the keplerian elements: AFSPC